TimeEST,TemperatureF,Dew PointF,Humidity,Sea Level PressureIn,VisibilityMPH,Wind Direction,Wind SpeedMPH,Gust SpeedMPH,PrecipitationIn,Events,Conditions,WindDirDegrees,DateUTC
12:15 AM,28.4,15.8,59,29.81,10.0,NW,6.9,-,N/A,,Unknown,320,2013-02-17 05:15:00
12:30 AM,28.4,15.8,59,29.81,10.0,NW,6.9,-,N/A,,Unknown,310,2013-02-17 05:30:00
12:50 AM,26.6,17.6,69,29.81,10.0,NW,8.1,-,N/A,,Unknown,310,2013-02-17 05:50:00
1:15 AM,26.6,17.6,69,29.81,10.0,NW,6.9,-,N/A,,Unknown,320,2013-02-17 06:15:00
1:35 AM,26.6,17.6,69,29.81,10.0,NW,6.9,-,N/A,,Unknown,320,2013-02-17 06:35:00
1:55 AM,26.6,17.6,69,29.81,10.0,NW,6.9,-,N/A,,Unknown,310,2013-02-17 06:55:00
2:15 AM,26.6,17.6,69,29.81,10.0,NW,8.1,-,N/A,,Unknown,320,2013-02-17 07:15:00
2:35 AM,26.6,17.6,69,29.81,10.0,NW,6.9,-,N/A,,Unknown,320,2013-02-17 07:35:00
2:55 AM,24.8,15.8,69,29.82,10.0,NW,8.1,-,N/A,,Unknown,320,2013-02-17 07:55:00
3:15 AM,24.8,17.6,74,29.81,10.0,NW,9.2,-,N/A,,Unknown,320,2013-02-17 08:15:00
3:35 AM,24.8,15.8,69,29.81,10.0,NW,8.1,-,N/A,,Unknown,310,2013-02-17 08:35:00
3:55 AM,24.8,15.8,69,29.81,10.0,NW,8.1,-,N/A,,Unknown,310,2013-02-17 08:55:00
4:15 AM,24.8,15.8,69,29.81,10.0,NW,9.2,-,N/A,,Unknown,320,2013-02-17 09:15:00
4:35 AM,24.8,15.8,69,29.81,10.0,NW,6.9,-,N/A,,Unknown,310,2013-02-17 09:35:00
4:55 AM,23.0,14.0,68,29.82,10.0,WNW,5.8,-,N/A,,Unknown,300,2013-02-17 09:55:00
5:15 AM,23.0,12.2,63,29.82,10.0,NW,8.1,-,N/A,,Unknown,310,2013-02-17 10:15:00
5:35 AM,23.0,12.2,63,29.82,10.0,NW,9.2,-,N/A,,Unknown,320,2013-02-17 10:35:00
5:55 AM,23.0,10.4,59,29.82,10.0,WNW,6.9,-,N/A,,Unknown,300,2013-02-17 10:55:00
6:15 AM,21.2,10.4,63,29.82,10.0,WNW,8.1,-,N/A,,Unknown,300,2013-02-17 11:15:00
6:35 AM,21.2,8.6,58,29.82,10.0,WNW,8.1,-,N/A,,Unknown,300,2013-02-17 11:35:00
6:55 AM,21.2,10.4,63,29.83,10.0,WNW,8.1,-,N/A,,Unknown,290,2013-02-17 11:55:00
7:15 AM,21.2,10.4,63,29.84,10.0,West,6.9,-,N/A,,Unknown,280,2013-02-17 12:15:00
7:55 AM,21.2,8.6,58,29.85,10.0,WNW,10.4,17.3,N/A,,Unknown,300,2013-02-17 12:55:00
8:15 AM,23.0,8.6,54,29.86,10.0,NW,12.7,18.4,N/A,,Unknown,310,2013-02-17 13:15:00
8:35 AM,23.0,8.6,54,29.87,10.0,NW,11.5,23.0,N/A,,Unknown,310,2013-02-17 13:35:00
8:55 AM,24.8,8.6,50,29.87,10.0,WNW,12.7,20.7,N/A,,Unknown,300,2013-02-17 13:55:00
9:15 AM,24.8,8.6,50,29.87,10.0,WNW,16.1,27.6,N/A,,Unknown,300,2013-02-17 14:15:00
9:35 AM,24.8,10.4,54,29.88,10.0,WNW,12.7,20.7,N/A,,Unknown,300,2013-02-17 14:35:00
9:55 AM,24.8,10.4,54,29.88,10.0,WNW,15.0,27.6,N/A,,Unknown,300,2013-02-17 14:55:00
10:15 AM,26.6,10.4,51,29.88,10.0,WNW,23.0,31.1,N/A,,Unknown,290,2013-02-17 15:15:00
12:55 PM,28.4,8.6,43,29.90,10.0,NW,15.0,29.9,N/A,,Unknown,310,2013-02-17 17:55:00
1:15 PM,26.6,12.2,55,29.91,10.0,West,19.6,32.2,N/A,,Unknown,280,2013-02-17 18:15:00
1:35 PM,24.8,17.6,74,29.92,0.8,WNW,15.0,29.9,N/A,Snow,Light Snow,300,2013-02-17 18:35:00
1:55 PM,23.0,17.6,80,29.92,1.2,NW,12.7,18.4,N/A,Snow,Light Snow,320,2013-02-17 18:55:00
2:15 PM,24.8,17.6,74,29.92,10.0,WNW,19.6,24.2,N/A,,Unknown,300,2013-02-17 19:15:00
2:35 PM,26.6,17.6,69,29.91,10.0,WNW,15.0,29.9,N/A,,Unknown,290,2013-02-17 19:35:00
2:55 PM,26.6,15.8,64,29.92,7.0,Calm,Calm,29.9,N/A,,Unknown,310,2013-02-17 19:55:00
3:15 PM,24.8,17.6,74,29.93,10.0,WNW,16.1,32.2,N/A,,Unknown,300,2013-02-17 20:15:00
3:35 PM,26.6,12.2,55,29.94,10.0,NW,20.7,29.9,N/A,,Unknown,310,2013-02-17 20:35:00
3:55 PM,24.8,19.4,80,29.94,1.0,WNW,13.8,17.3,N/A,Snow,Light Snow,290,2013-02-17 20:55:00
4:20 PM,26.6,14.0,59,29.95,7.0,West,23.0,33.4,N/A,Snow,Snow,280,2013-02-17 21:20:00
4:40 PM,24.8,15.8,69,29.96,7.0,WNW,12.7,31.1,N/A,,Unknown,300,2013-02-17 21:40:00
5:00 PM,24.8,10.4,54,29.96,10.0,North,-9999.0,-,N/A,,Unknown,0,2013-02-17 22:00:00
5:20 PM,24.8,15.8,69,29.97,-9999.0,WNW,15.0,28.8,N/A,,Unknown,290,2013-02-17 22:20:00
5:40 PM,24.8,12.2,59,29.98,10.0,WNW,15.0,24.2,N/A,,Unknown,290,2013-02-17 22:40:00
6:00 PM,24.8,12.2,59,30.00,10.0,WNW,17.3,27.6,N/A,,Unknown,290,2013-02-17 23:00:00
6:20 PM,24.8,8.6,50,30.01,10.0,WNW,17.3,29.9,N/A,,Unknown,290,2013-02-17 23:20:00
6:40 PM,23.0,8.6,54,30.02,10.0,WNW,16.1,23.0,N/A,,Unknown,290,2013-02-17 23:40:00
7:00 PM,23.0,8.6,54,30.03,10.0,West,15.0,25.3,N/A,,Unknown,280,2013-02-18 00:00:00
7:20 PM,23.0,10.4,59,30.03,10.0,West,17.3,24.2,N/A,,Unknown,280,2013-02-18 00:20:00
7:40 PM,23.0,8.6,54,30.04,10.0,WNW,21.9,-,N/A,,Unknown,300,2013-02-18 00:40:00
8:00 PM,23.0,8.6,54,30.05,10.0,WNW,17.3,28.8,N/A,,Unknown,300,2013-02-18 01:00:00
8:20 PM,21.2,8.6,58,30.06,10.0,Calm,Calm,25.3,N/A,,Unknown,310,2013-02-18 01:20:00
8:40 PM,21.2,6.8,54,30.07,10.0,WNW,13.8,27.6,N/A,,Unknown,300,2013-02-18 01:40:00
9:00 PM,21.2,6.8,54,30.09,10.0,WNW,18.4,27.6,N/A,,Unknown,300,2013-02-18 02:00:00
9:20 PM,21.2,6.8,54,30.10,10.0,WNW,17.3,-,N/A,,Unknown,290,2013-02-18 02:20:00
9:40 PM,21.2,6.8,54,30.11,10.0,WNW,12.7,25.3,N/A,,Unknown,300,2013-02-18 02:40:00
10:00 PM,21.2,5.0,50,30.12,10.0,WNW,16.1,25.3,N/A,,Unknown,300,2013-02-18 03:00:00
10:20 PM,21.2,5.0,50,30.12,10.0,WNW,15.0,28.8,N/A,,Unknown,300,2013-02-18 03:20:00
10:40 PM,21.2,5.0,50,30.13,10.0,WNW,15.0,24.2,N/A,,Unknown,300,2013-02-18 03:40:00
11:00 PM,21.2,6.8,54,30.13,10.0,WNW,12.7,20.7,N/A,,Unknown,300,2013-02-18 04:00:00
11:20 PM,19.4,6.8,58,30.13,10.0,WNW,13.8,24.2,N/A,,Unknown,300,2013-02-18 04:20:00
11:40 PM,19.4,5.0,54,30.14,10.0,WNW,11.5,18.4,N/A,,Unknown,300,2013-02-18 04:40:00